Port Hedland, Australia

7:42 PM AWST on August 19, 2017 (GMT +0800)
Port Hedland International

Weather History for YPPD - March, 2013

Change the Weather History Date:

Saturday, March 30, 2013

  Actual Average Record
Temperature  
Mean Temperature 85 °F -  
Max Temperature 96 °F 95 °F 103 °F (2016)
Min Temperature 74 °F 70 °F 68 °F (2001)
Cooling Degree Days 20    
Growing Degree Days 35 (Base 50)    
Moisture  
Dew Point 61 °F    
Average Humidity 49    
Maximum Humidity 89    
Minimum Humidity 9    
Precipitation  
Precipitation 0.00 in 0.03 in - ()
Sea Level Pressure  
Sea Level Pressure 29.83 in    
Wind  
Wind Speed 9 mph ()    
Max Wind Speed 18 mph    
Max Gust Speed 26 mph    
Visibility 6.2 miles    
Events      
Averages and records for this station are not official NWS values.
T = Trace of Precipitation, MM = Missing Value Source: Averaged Metar Reports

Daily Weather History Graph

Daily Weather History Graph

Search for Another Location

Airport or City:

Trip Planner

Search our weather history database for the weather conditions in past years. The results will help you decide how hot, cold, wet, or windy it might be!

Date:

Astronomy

Mar. 30, 2013 Rise Set
Actual Time 6:12 AM AWST 6:07 PM AWST
Civil Twilight 5:49 AM AWST 6:29 PM AWST
Nautical Twilight 5:24 AM AWST 6:55 PM AWST
Astronomical Twilight 4:58 AM AWST 7:20 PM AWST
Moon 8:21 PM AWST (3/30) 8:46 AM AWST (3/30)
Length of Visible Light 12h 39m
Length of Day
11h 55m
Waning Gibbous, 90% of the Moon is Illuminated
Mar 30
Waning Gibbous
Apr 3
Last Quarter
Apr 10
New
Apr 18
First Quarter
Apr 26
Full

Hourly Weather History & Observations

Time (AWST) Temp. Heat Index Dew Point Humidity Pressure Visibility Wind Dir Wind Speed Gust Speed Precip Events Conditions
12:00 AM 79 °F - 75 °F 83% 29.83 in - East 6.9 mph - -  
12:00 AM 78.8 °F - 75.2 °F 89% 29.83 in 6.2 mi East 6.9 mph - N/A   Unknown
12:30 AM 78.8 °F - 75.2 °F 89% 29.80 in 6.2 mi East 8.1 mph - N/A   Unknown
1:00 AM 78.8 °F - 73.4 °F 83% 29.80 in 6.2 mi East 11.5 mph - N/A   Unknown
1:30 AM 78.8 °F - 73.4 °F 83% 29.83 in 6.2 mi SW 5.8 mph - N/A   Unknown
2:00 AM 80 °F - 69 °F 61% 29.83 in - East 8.1 mph - -  
2:00 AM 78.8 °F - 69.8 °F 74% 29.83 in 6.2 mi East 8.1 mph - N/A   Unknown
2:30 AM 78.8 °F - 66.2 °F 65% 29.83 in 6.2 mi East 8.1 mph - N/A   Unknown
3:00 AM 80 °F - 66 °F 54% 29.83 in - ESE 8.1 mph - -  
3:00 AM 80.6 °F 82.7 °F 66.2 °F 61% 29.83 in 6.2 mi ESE 8.1 mph - N/A   Unknown
3:30 AM 77.0 °F - 66.2 °F 69% 29.83 in 6.2 mi East 10.4 mph - N/A   Unknown
4:00 AM 77.0 °F - 66.2 °F 69% 29.83 in 6.2 mi ESE 6.9 mph - N/A   Unknown
4:30 AM 77.0 °F - 66.2 °F 69% 29.83 in 6.2 mi East 8.1 mph - N/A   Unknown
5:00 AM 75 °F - 67 °F 69% 29.85 in - ESE 8.1 mph - -  
5:00 AM 75.2 °F - 66.2 °F 73% 29.83 in 6.2 mi ESE 8.1 mph - N/A   Unknown
5:30 AM 75.2 °F - 66.2 °F 73% 29.86 in 6.2 mi SE 6.9 mph - N/A   Unknown
6:00 AM 75 °F - 66 °F 68% 29.86 in - ESE 6.9 mph - -  
6:00 AM 75.2 °F - 66.2 °F 73% 29.86 in 6.2 mi ESE 6.9 mph - N/A   Unknown
6:30 AM 73.4 °F - 66.2 °F 78% 29.86 in 6.2 mi SE 6.9 mph - N/A   Unknown
7:00 AM 77.0 °F - 66.2 °F 69% 29.86 in 6.2 mi ESE 6.9 mph - N/A   Unknown
7:30 AM 78.8 °F - 66.2 °F 65% 29.89 in 6.2 mi SE 6.9 mph - N/A   Unknown
8:00 AM 82 °F - 63 °F 42% 29.89 in - SE 12.7 mph - -  
8:00 AM 82.4 °F 83.4 °F 62.6 °F 51% 29.89 in 6.2 mi SE 12.7 mph - N/A   Unknown
8:30 AM 82.4 °F 83.4 °F 62.6 °F 51% 29.89 in 6.2 mi SE 18.4 mph - N/A   Unknown
9:00 AM 84 °F - 61 °F 36% 29.89 in - SE 17.3 mph - -  
9:00 AM 84.2 °F 84.4 °F 60.8 °F 45% 29.89 in 6.2 mi SE 17.3 mph - N/A   Unknown
9:30 AM 86.0 °F 86.1 °F 60.8 °F 43% 29.89 in 6.2 mi SE 16.1 mph - N/A   Unknown
10:00 AM 87.8 °F 87.1 °F 59.0 °F 38% 29.89 in 6.2 mi SE 16.1 mph - N/A   Unknown
10:30 AM 89.6 °F 89.5 °F 60.8 °F 38% 29.86 in 6.2 mi ESE 15.0 mph - N/A   Unknown
11:00 AM 90 °F - 58 °F 24% 29.86 in - ESE 18.4 mph - -  
11:00 AM 89.6 °F 88.9 °F 59.0 °F 36% 29.86 in 6.2 mi ESE 18.4 mph - N/A   Unknown
11:30 AM 91.4 °F 89.9 °F 57.2 °F 31% 29.83 in 6.2 mi ESE 15.0 mph - N/A   Unknown
12:00 PM 92 °F - 56 °F 20% 29.83 in - ESE 15.0 mph - -  
12:00 PM 91.4 °F 89.4 °F 55.4 °F 29% 29.83 in 6.2 mi ESE 15.0 mph 26.5 mph N/A   Unknown
12:30 PM 93.2 °F 90.8 °F 53.6 °F 26% 29.80 in 6.2 mi ESE 13.8 mph - N/A   Unknown
1:00 PM 93.2 °F - 51.8 °F 24% 29.80 in 6.2 mi SE 12.7 mph - N/A   Unknown
1:30 PM 95.0 °F - 51.8 °F 23% 29.77 in 6.2 mi SE 11.5 mph - N/A   Unknown
2:00 PM 95 °F - 50 °F 13% 29.78 in - SE 11.5 mph - -  
2:00 PM 95.0 °F - 50.0 °F 22% 29.77 in 6.2 mi SE 11.5 mph - N/A   Unknown
2:30 PM 95.0 °F - 50.0 °F 22% 29.77 in 6.2 mi South 11.5 mph - N/A   Unknown
3:00 PM 95 °F - 45 °F 10% 29.76 in - SE 11.5 mph - -  
3:00 PM 95.0 °F - 44.6 °F 18% 29.74 in 6.2 mi SE 11.5 mph - N/A   Unknown
3:30 PM 95.0 °F - 46.4 °F 19% 29.74 in 6.2 mi SE 10.4 mph - N/A   Unknown
4:00 PM 96.8 °F - 46.4 °F 18% 29.74 in 6.2 mi SSE 11.5 mph - N/A   Unknown
4:30 PM 95.0 °F - 44.6 °F 18% 29.74 in 6.2 mi South 8.1 mph - N/A   Unknown
5:00 PM 94 °F - 42 °F 9% 29.76 in - SE 10.4 mph - -  
5:00 PM 95.0 °F - 41.0 °F 15% 29.74 in 6.2 mi SE 10.4 mph - N/A   Unknown
5:30 PM 93.2 °F - 42.8 °F 17% 29.77 in 6.2 mi SE 9.2 mph - N/A   Unknown
6:00 PM 91 °F - 44 °F 11% 29.78 in - SE 8.1 mph - -  
6:00 PM 91.4 °F - 44.6 °F 20% 29.77 in 6.2 mi SE 8.1 mph - N/A   Unknown
6:30 PM 87.8 °F - 46.4 °F 24% 29.77 in 6.2 mi SE 6.9 mph - N/A   Unknown
7:00 PM 87.8 °F - 46.4 °F 24% 29.80 in 6.2 mi SE 6.9 mph - N/A   Unknown
7:30 PM 86.0 °F - 46.4 °F 25% 29.80 in 6.2 mi SE 6.9 mph - N/A   Unknown
8:00 PM 81 °F - 65 °F 49% 29.84 in - WNW 2.3 mph - -  
8:00 PM 80.6 °F 82.3 °F 64.4 °F 58% 29.83 in 6.2 mi WNW 2.3 mph - N/A   Unknown
8:30 PM 80.6 °F 84.6 °F 71.6 °F 74% 29.83 in 6.2 mi West 2.3 mph - N/A   Unknown
9:00 PM 79 °F - 71 °F 69% 29.85 in - West 5.8 mph - -  
9:00 PM 78.8 °F - 69.8 °F 74% 29.83 in 6.2 mi West 5.8 mph - N/A   Unknown
9:30 PM 78.8 °F - 71.6 °F 78% 29.86 in 6.2 mi West 5.8 mph - N/A   Unknown
10:00 PM 77.0 °F - 71.6 °F 83% 29.86 in 6.2 mi WSW 5.8 mph - N/A   Unknown
10:30 PM 78.8 °F - 71.6 °F 78% 29.86 in 6.2 mi SW 4.6 mph - N/A   Mostly Cloudy
11:00 PM 79 °F - 72 °F 72% 29.86 in - SSW 4.6 mph - -  
11:00 PM 78.8 °F - 71.6 °F 78% 29.86 in 6.2 mi SSW 4.6 mph - N/A   Scattered Clouds
11:30 PM 78.8 °F - 71.6 °F 78% 29.86 in 6.2 mi South 4.6 mph - N/A   Scattered Clouds